Regional Weather Roundup
Issued by NWS Little Rock, AR

Home | Current Version | Previous Version | Text Only | Print | Product List | Glossary Off
Versions: 1 2 3 4 5 6 7 8 9 10 11 12 13 14 15 16 17 18 19 20 21 22 23 24 25 26 27 28 29 30 31 32

000
ASUS44 KLZK 220505
RWRLZK

WEATHER ROUNDUP FOR ARKANSAS
NATIONAL WEATHER SERVICE LITTLE ROCK AR
1100 PM CST TUE FEB 21 2017

NOTE: "FAIR" INDICATES FEW OR NO CLOUDS BELOW 12,000 FEET WITH NO
SIGNIFICANT WEATHER AND/OR OBSTRUCTIONS TO VISIBILITY.

ARZ001-003-010-029-220600-
NORTHWEST ARKANSAS

CITY           SKY/WX    TMP DP  RH WIND       PRES   REMARKS
FAYETTEVILLE   CLEAR     50  50 100 NW5       29.94S
FORT SMITH     CLEAR     58  54  86 CALM      29.91S
HARRISON       CLOUDY    57  56  96 E3        29.92F
BENTONVILLE    CLEAR     54  52  94 CALM      29.94S
ROGERS         CLEAR     52  52 100 CALM      29.94R FOG
SILOAM SPGS    CLEAR     54  50  87 CALM      29.93F
HIGHFILL       CLEAR     55  53  93 W3        29.93S
$$

ARZ004-005-016-220600-
NORTH CENTRAL ARKANSAS

CITY           SKY/WX    TMP DP  RH WIND       PRES   REMARKS
BATESVILLE     CLOUDY    57  55  94 CALM      29.91R
FLIPPIN        CLOUDY    57  52  82 N3        29.89F
MTN HOME       CLOUDY    56  55  97 CALM      29.90F
$$

ARZ040-041-220600-
WEST CENTRAL ARKANSAS

CITY           SKY/WX    TMP DP  RH WIND       PRES   REMARKS
MENA           CLOUDY    61  61 100 CALM      29.91F
MOUNT IDA      CLOUDY    60  57  89 CALM      29.88S
$$

ARZ009-017-025-026-028-220600-
NORTHEAST ARKANSAS

CITY           SKY/WX    TMP DP  RH WIND       PRES   REMARKS
CORNING        CLOUDY    59  59 100 E10       29.90S
JONESBORO      PTCLDY    59  58  96 E8        29.88F
NEWPORT        CLOUDY    58  57  97 N3        29.89S
WALNUT RIDGE   CLOUDY    59  55  88 E8        29.88F
BLYTHEVILLE    CLOUDY    59  59 100 E6        29.91F
$$

ARZ022-023-033-042-044-220600-
CENTRAL ARKANSAS

CITY           SKY/WX    TMP DP  RH WIND       PRES   REMARKS
LITTLE ROCK    CLOUDY    58  58 100 NW6       29.90R
JACKSONVILLE   CLOUDY    58  58 100 W6        29.89R
SEARCY         MOCLDY    57  57 100 NW3       29.91R FOG
HOT SPRINGS    CLOUDY    59  59 100 NW3       29.90S
RUSSELLVILLE   CLOUDY    59  57  93 CALM      29.90S
CLINTON        CLOUDY    55  55 100 CALM      29.91R FOG
$$

ARZ036-220600-
EAST ARKANSAS

CITY           SKY/WX    TMP DP  RH WIND       PRES   REMARKS
WEST MEMPHIS   CLOUDY    60  60 100 E7        29.87F
$$

ARZ050-053-066-070-073-220600-
SOUTHWEST ARKANSAS

CITY           SKY/WX    TMP DP  RH WIND       PRES   REMARKS
ARKADELPHIA    CLOUDY    60  58  92 N5        29.90R
CAMDEN         CLOUDY    59  57  94 NW6       29.89R
TEXARKANA      CLOUDY    62  55  77 N3        29.89S
EL DORADO      CLOUDY    60  59  96 NW5       29.88R
DE QUEEN       CLEAR     56  56 100 CALM      29.88S
$$

ARZ056-057-069-220600-
SOUTHEAST ARKANSAS

CITY           SKY/WX    TMP DP  RH WIND       PRES   REMARKS
PINE BLUFF     CLOUDY    58  58 100 SW5       29.88R
STUTTGART      CLEAR     57  50  77 NE3       29.88R
MONTICELLO     CLOUDY    58  56  93 SW3       29.88R

$$






USA.gov is the U.S. government's official web portal to all federal, state and local government web resources and services.